This demonstration page uses our WeatherBlox Daily Observations layout. Learn more.

Left ArrowRight Arrow

Hourly Observations for May 27, 2016

Temp ( °F °C ) Dew Point ( °F °C ) Humidity (%) Winds ( mph kmh ) Pressure ( in mb ) Visibility ( mi km ) Precip ( " mm )
12:52 am 00:52 Cloudy 69 20.6 64 17.8 84 84 SSE 7 11 29.83 1010 10 16 0.00 0.00
1:52 am 01:52 Cloudy 70 21.1 65 18.3 84 84 SSE 10 17 29.81 1009 10 16 0.00 0.00
2:23 am 02:23 Mostly Cloudy 69 20.6 65 18.3 87 87 SSE 10 17 29.80 1009 10 16 0.00 0.00
2:52 am 02:52 Clear 68 20 65 18.3 90 90 SSE 8 13 29.76 1008 10 16 0.00 0.00
3:52 am 03:52 Cloudy 69 20.6 66 18.9 90 90 SSE 12 19 29.77 1008 10 16 0.00 0.00
4:00 am 04:00 Cloudy 70 21 66 19 88 88 SSE 14 22 29.74 1007 10 16 0.00 0.00
4:52 am 04:52 Cloudy 69 20.6 66 18.9 90 90 SSE 14 22 29.73 1007 10 16 0.00 0.03
5:07 am 05:07 Cloudy 69 20.6 66 18.9 90 90 SSE 13 20 29.71 1006 10 16 0.00 0.00
5:52 am 05:52 Mostly Clear 69 20.6 65 18.3 87 87 SE 10 17 29.72 1006 10 16 0.00 0.00
6:48 am 06:48 Partly Cloudy 70 21 64 18 83 83 SSE 13 20 29.71 1006 10 16 0.00 0.00
6:52 am 06:52 Mostly Cloudy 69 20.6 66 18.9 90 90 SSE 10 17 29.76 1008 10 16 0.00 0.00
7:27 am 07:27 Cloudy 69 20.6 65 18.3 87 87 S 12 19 29.80 1009 10 16 0.00 0.00
7:52 am 07:52 Cloudy 70 21.1 66 18.9 87 87 SSE 10 17 29.80 1009 8 13 0.00 0.00
8:04 am 08:04 Cloudy 70 21 66 19 88 88 SSE 10 17 29.77 1008 10 16 0.00 0.00
8:52 am 08:52 Mostly Cloudy 72 22.2 66 18.9 82 82 S 13 20 29.78 1008 10 16 0.00 0.00
9:18 am 09:18 Mostly Cloudy 73 23 66 19 78 78 SSE 13 20 29.74 1007 10 16 0.00 0.00
9:52 am 09:52 Cloudy 73 22.8 65 18.3 76 76 S 10 17 29.77 1008 10 16 0.00 0.00
10:52 am 10:52 Cloudy 73 22.8 66 18.9 79 79 S 9 15 29.77 1008 10 16 0.00 0.00
11:16 am 11:16 Cloudy 73 23 66 19 78 78 SSW 9 15 29.74 1007 10 16 0.00 0.00
11:29 am 11:29 Cloudy 74 23.3 66 18.9 76 76 S 10 17 29.74 1007 10 16 0.00 0.00
11:52 am 11:52 Mostly Cloudy 74 23.3 66 18.9 76 76 S 14 22 29.76 1008 10 16 0.00 0.00
12:52 pm 12:52 Partly Cloudy 74 23.3 66 18.9 76 76 S 15 24 29.75 1008 10 16 0.00 0.00
1:52 pm 13:52 Partly Cloudy 75 23.9 66 18.9 74 74 S 9 15 29.75 1008 10 16 0.00 0.00
2:03 pm 14:03 Mostly Cloudy 75 24 66 19 74 74 S 13 20 29.74 1007 10 16 0.00 0.00
2:14 pm 14:14 Mostly Cloudy with Light Rain 73 23 66 19 78 78 S 13 20 29.74 1007 10 16 0.00 0.00
2:52 pm 14:52 Cloudy with Light Rain 74 23.3 67 19.4 79 79 S 16 26 29.74 1007 10 16 0.00 0.03
3:52 pm 15:52 Cloudy with Light Rain 72 22.2 67 19.4 84 84 S 9 15 29.74 1007 10 16 0.01 0.25
4:52 pm 16:52 Cloudy with Light Rain 72 22.2 65 18.3 79 79 SSE 8 13 29.72 1006 10 16 0.00 0.03
5:52 pm 17:52 Cloudy 73 22.8 65 18.3 76 76 SSE 8 13 29.72 1006 10 16 0.00 0.03
6:52 pm 18:52 Sunny 73 22.8 65 18.3 76 76 SSE 13 20 29.69 1006 10 16 0.00 0.00
7:52 pm 19:52 Sunny 72 22.2 66 18.9 82 82 SE 9 15 29.71 1006 10 16 0.00 0.00
8:52 pm 20:52 Partly Cloudy 72 22.2 66 18.9 82 82 SSE 10 17 29.71 1006 10 16 0.00 0.00
9:52 pm 21:52 Clear 70 21.1 65 18.3 84 84 SSE 9 15 29.76 1008 10 16 0.00 0.00
10:52 pm 22:52 Clear 68 20 64 17.8 87 87 S 10 17 29.78 1008 10 16 0.00 0.00
11:52 pm 23:52 Clear 67 19.4 62 16.7 84 84 S 13 20 29.77 1008 10 16 0.00 0.00

Powered by AerisWeather